Onweer van: 25-07-2021 11:00 tot: 20:00 waarschuwing voor: Onweer niveau: Geel info button


waarschuwing voor Onweer Meer informatie blitzortung!


Regen radar Meer informatie rain snow radar


Bezoek onze andere website:

Template documentation
and downloads

And another site



15 daagse weersverwachting Düsseldorf (DE)

  • Overzicht
  • Per uur
  • 15 dagen
  • Extra
  • Vergelijk
  • Kaarten
  • Dagkaart
  • Meer »
  • Info
  • Statistieken
  • Directe link
    Temp 6h Neerslag Wind  
 05:50     21:30    Daglengte: 15:40 Vandaag
08:00
18°
 
2
14:00
24°
 
3
20:00
23°
 
2
 05:52     21:28    Daglengte: 15:36 Morgen
02:00
18°
 
2
08:00
18°
 
3
14:00
23°
1.9 mm
3
20:00
21°
6.8 mm
4
 05:53     21:27    Daglengte: 15:34 Dinsdag 27 Jul
02:00
17°
8.4 mm
2
08:00
17°
 
3
14:00
24°
 
5
20:00
21°
6.9 mm
4
 05:54     21:25    Daglengte: 15:31 Woensdag 28 Jul
02:00
18°
 
3
Locatie info
Region: Nordrhein-Westfalen
Latitude: 51.2156°N
Longitude: 6.7767°E
45 masl
Postcode: 40217
Temp/Neerslag /Baro Onweer/Dauwpunt
    Temp Baro 1h Neerslag Dauwpunt Wind UV Bewolking  
 05:50     21:30    Daglengte: 15:40 Vandaag
05:00
17°
1008.4 hPa
48%
16.6°
2
Windvlaag: 4.2 m/s
45%
06:00
17°
1008.4 hPa
73%
16.2°
3
Windvlaag: 4.3 m/s
13%
07:00
17°
1008.4 hPa
17%
16.2°
2
Windvlaag: 4.6 m/s
13%
08:00
18°
1008.3 hPa
14%
16.3°
2
Windvlaag: 4.6 m/s
10%
09:00
19°
1008.6 hPa
14%
16.7°
3
Windvlaag: 5.5 m/s
10%
10:00
21°
1008.7 hPa
14%
17.0°
3
Windvlaag: 5.9 m/s
13%
11:00
22°
1008.9 hPa
15%
16.8°
3
Windvlaag: 6 m/s
13%
12:00
23°
1008.6 hPa
72%
16.4°
3
Windvlaag: 5.9 m/s
40%
13:00
24°
1008.3 hPa
74%
15.4°
3
Windvlaag: 6.4 m/s
11%
14:00
24°
1008.2 hPa
74%
15.2°
3
Windvlaag: 6.9 m/s
21%
15:00
25°
1008.2 hPa
43%
14.1°
3
Windvlaag: 6.2 m/s
21%
16:00
25°
1008.1 hPa
80%
13.9°
3
Windvlaag: 5.2 m/s
12%
17:00
25°
1007.9 hPa
80%
14.5°
2
Windvlaag: 5.8 m/s
9%
18:00
24°
1007.8 hPa
81%
15.6°
3
Windvlaag: 5.4 m/s
32%
19:00
24°
1008.0 hPa
82%
16.2°
2
Windvlaag: 5.1 m/s
20%
20:00
23°
1008.2 hPa
74%
16.0°
2
Windvlaag: 2.2 m/s
28%
21:00
22°
1008.5 hPa
22%
16.2°
1
Windvlaag: 2.4 m/s
34%
22:00
21°
1008.8 hPa
14%
16.9°
1
Windvlaag: 1.2 m/s
28%
23:00
20°
1009.0 hPa
62%
17.5°
1
Windvlaag: 0.3 m/s
27%
 05:52     21:28    Daglengte: 15:36 Morgen
00:00
20°
1009.2 hPa
63%
17.5°
1
Windvlaag: 1.3 m/s
41%
01:00
19°
1009.3 hPa
18%
17.1°
2
Windvlaag: 3.2 m/s
34%
02:00
18°
1009.3 hPa
19%
16.9°
2
Windvlaag: 3.9 m/s
14%
03:00
18°
1009.3 hPa
16%
16.7°
2
Windvlaag: 4 m/s
31%
04:00
18°
1009.4 hPa
14%
16.6°
2
Windvlaag: 4.1 m/s
47%
05:00
18°
1009.5 hPa
14%
16.5°
2
Windvlaag: 3.6 m/s
50%
06:00
17°
1009.8 hPa
14%
16.3°
3
Windvlaag: 4.1 m/s
57%
07:00
18°
1009.9 hPa
14%
16.2°
3
Windvlaag: 4.5 m/s
60%
08:00
18°
1010.0 hPa
14%
16.4°
3
Windvlaag: 5.8 m/s
41%
09:00
19°
1010.3 hPa
56%
16.4°
4
Windvlaag: 6 m/s
40%
10:00
20°
1010.6 hPa
78%
16.2°
4
Windvlaag: 6.5 m/s
37%
11:00
21°
1010.6 hPa
78%
14.9°
4
Windvlaag: 6.6 m/s
42%
12:00
22°
1010.7 hPa
77%
13.7°
4
Windvlaag: 6.9 m/s
26%
13:00
23°
1010.4 hPa
76%
14.3°
3
Windvlaag: 6.7 m/s
41%
14:00
23°
1010.1 hPa 1.9 mm
73%
16.0°
3
Windvlaag: 6.4 m/s
40%
15:00
23°
1009.8 hPa
82%
15.6°
3
Windvlaag: 6.1 m/s
23%
16:00
23°
1009.8 hPa 2.1 mm
82%
15.1°
4
Windvlaag: 5.5 m/s
52%
17:00
22°
1009.9 hPa 2.5 mm
82%
14.7°
3
Windvlaag: 5.4 m/s
64%
18:00
22°
1010.0 hPa 2.2 mm
81%
15.5°
4
Windvlaag: 3.5 m/s
50%
19:00
21°
1010.0 hPa
82%
14.8°
4
Windvlaag: 4.6 m/s
26%
20:00
21°
1010.2 hPa
82%
14.3°
4
Windvlaag: 4.7 m/s
15%
21:00
20°
1010.6 hPa 2.1 mm
82%
14.3°
3
Windvlaag: 3.5 m/s
38%
22:00
19°
1011.0 hPa
81%
15.3°
2
Windvlaag: 3.2 m/s
36%
23:00
19°
1011.4 hPa
90%
13.1°
3
Windvlaag: 4.5 m/s
90%
 05:53     21:27    Daglengte: 15:34 Dinsdag 27 Jul
00:00
18°
1011.7 hPa 3.1 mm
100%
13.7°
3
Windvlaag: 4.8 m/s
72%
01:00
18°
1011.6 hPa 3.1 mm
96%
13.6°
3
Windvlaag: 4.2 m/s
71%
02:00
17°
1011.8 hPa
27%
13.0°
2
Windvlaag: 4.1 m/s
75%
03:00
17°
1011.7 hPa
27%
13.4°
3
Windvlaag: 4.2 m/s
58%
04:00
17°
1011.7 hPa
22%
13.6°
3
Windvlaag: 3.3 m/s
44%
05:00
17°
1011.9 hPa
62%
13.6°
3
Windvlaag: 3.5 m/s
48%
06:00
17°
1011.7 hPa
84%
13.6°
2
Windvlaag: 3.3 m/s
60%
07:00
17°
1012.0 hPa
37%
13.4°
2
Windvlaag: 3.7 m/s
56%
08:00
17°
1012.1 hPa
21%
13.4°
3
Windvlaag: 4.2 m/s
71%
09:00
19°
1012.2 hPa
21%
13.8°
3
Windvlaag: 8.8 m/s
73%
10:00
20°
1012.1 hPa
24%
13.4°
3
Windvlaag: 7.6 m/s
73%
11:00
21°
1011.8 hPa
23%
13.6°
4
Windvlaag: 6.7 m/s
26%
12:00
23°
1011.5 hPa
24%
13.0°
4
Windvlaag: 6.8 m/s
14%
13:00
24°
1011.2 hPa
30%
12.8°
4
Windvlaag: 6.5 m/s
69%
14:00
24°
1011.1 hPa
95%
13.9°
5
Windvlaag: 7.7 m/s
88%
15:00
24°
1011.1 hPa
100%
12.5°
4
Windvlaag: 7.4 m/s
94%
16:00
23°
1011.1 hPa
100%
10.4°
4
Windvlaag: 7.6 m/s
84%
17:00
21°
1011.6 hPa 3.5 mm
100%
8.2°
4
Windvlaag: 7.4 m/s
81%
18:00
22°
1010.8 hPa
100%
8.1°
3
Windvlaag: 6.9 m/s
47%
19:00
21°
1010.6 hPa 3.4 mm
99%
8.4°
3
Windvlaag: 6.1 m/s
90%
20:00
21°
1010.8 hPa
100%
15.0°
4
Windvlaag: 10 m/s
65%
21:00
20°
1011.0 hPa
97%
16.5°
3
Windvlaag: 7.4 m/s
16%
22:00
19°
1011.4 hPa
32%
14.9°
2
Windvlaag: 5.5 m/s
92%
23:00
19°
1011.5 hPa
30%
14.0°
2
Windvlaag: 8 m/s
75%
 05:54     21:25    Daglengte: 15:31 Woensdag 28 Jul
00:00
18°
1011.5 hPa
23%
14.0°
3
Windvlaag: 8.2 m/s
75%
01:00
18°
1011.4 hPa
26%
14.9°
3
Windvlaag: 7.8 m/s
44%
02:00
18°
1011.4 hPa
28%
14.6°
3
Windvlaag: 7.3 m/s
49%
Temp/Neerslag /Baro Onweer/Dauwpunt
    Temp Baro Neerslag Dauwpunt Wind Bewolking  
 05:50     21:30    Daglengte: 15:40 Vandaag
05:00
17°
1008.4 hPa   16.6°
2
45%
08:00
18°
1008.3 hPa   16.3°
2
10%
11:00
22°
1008.9 hPa   16.8°
3
13%
14:00
24°
1008.2 hPa   15.2°
3
21%
17:00
25°
1007.9 hPa   14.5°
2
9%
20:00
23°
1008.2 hPa   16.0°
2
28%
23:00
20°
1009.0 hPa   17.5°
1
27%
 05:52     21:28    Daglengte: 15:36 Morgen
02:00
18°
1009.3 hPa   16.9°
2
14%
05:00
18°
1009.5 hPa   16.5°
2
50%
08:00
18°
1010.0 hPa   16.4°
3
41%
11:00
21°
1010.6 hPa   14.9°
4
42%
14:00
23°
1010.1 hPa 1.9 mm 16.0°
3
40%
17:00
22°
1009.9 hPa 4.7 mm 14.7°
3
64%
20:00
21°
1010.2 hPa 2.2 mm 14.3°
4
15%
23:00
19°
1011.4 hPa 2.1 mm 13.1°
3
90%
 05:53     21:27    Daglengte: 15:34 Dinsdag 27 Jul
02:00
17°
1011.8 hPa 6.3 mm 13.0°
2
75%
05:00
17°
1011.9 hPa   13.6°
3
48%
08:00
17°
1012.1 hPa   13.4°
3
71%
11:00
21°
1011.8 hPa   13.6°
4
26%
14:00
24°
1011.1 hPa   13.9°
5
88%
17:00
21°
1011.6 hPa 3.5 mm 8.2°
4
81%
20:00
21°
1010.8 hPa 3.4 mm 15.0°
4
65%
23:00
19°
1011.5 hPa   14.0°
2
75%
 05:54     21:25    Daglengte: 15:31 Woensdag 28 Jul
02:00
18°
1011.4 hPa   14.6°
3
49%
05:00
15°
1010.9 hPa 8.0 mm 12.1°
3
1%
08:00
17°
1011.7 hPa 8.1 mm 13.1°
4
1%
11:00
17°
1012.9 hPa 8.6 mm 14.5°
5
1%
14:00
20°
1013.4 hPa 8.8 mm 13.1°
4
1%
17:00
20°
1013.5 hPa 9.8 mm 14.2°
5
1%
20:00
20°
1013.6 hPa 10.0 mm 12.7°
3
1%
23:00
17°
1014.1 hPa 10.1 mm 12.9°
3
0%
 05:56     21:24    Daglengte: 15:28 Donderdag 29 Jul
02:00
15°
1013.5 hPa 10.1 mm 12.1°
2
0%
05:00
14°
1012.7 hPa 10.1 mm 11.7°
3
0%
08:00
16°
1012.0 hPa 10.1 mm 10.4°
4
0%
11:00
22°
1011.1 hPa 10.2 mm 11.9°
5
1%
14:00
25°
1009.6 hPa 10.6 mm 10.9°
7
0%
17:00
24°
1009.0 hPa 10.7 mm 11.0°
6
1%
20:00
21°
1009.3 hPa 10.9 mm 12.9°
5
1%
23:00
18°
1010.1 hPa 11.1 mm 14.0°
5
1%
 05:57     21:22    Daglengte: 15:25 Vrijdag 30 Jul
02:00
16°
1010.9 hPa 11.1 mm 10.6°
4
1%
05:00
14°
1011.4 hPa 11.1 mm 9.4°
3
1%
08:00
15°
1011.9 hPa 11.1 mm 9.8°
4
1%
11:00
19°
1012.0 hPa 11.1 mm 9.9°
5
1%
14:00
22°
1011.3 hPa 11.1 mm 8.6°
5
1%
17:00
21°
1010.7 hPa 11.1 mm 9.2°
5
1%
20:00
20°
1010.3 hPa 11.1 mm 9.7°
3
1%
23:00
18°
1010.0 hPa 11.1 mm 11.0°
3
1%
 05:59     21:21    Daglengte: 15:22 Zaterdag 31 Jul
02:00
17°
1009.4 hPa 11.1 mm 12.6°
2
1%
05:00
15°
1007.0 hPa 14.6 mm 13.7°
2
1%
08:00
15°
1006.4 hPa 17.7 mm 14.2°
2
1%
11:00
16°
1007.0 hPa 18.8 mm 14.6°
5
1%
14:00
19°
1008.7 hPa 19.4 mm 12.9°
6
1%
17:00
20°
1009.4 hPa 20.7 mm 13.3°
6
1%
20:00
18°
1009.6 hPa 21.1 mm 13.3°
5
0%
23:00
16°
1010.9 hPa 21.5 mm 12.7°
4
0%
 06:00     21:19    Daglengte: 15:19 Zondag 01 Aug
02:00
14°
1011.8 hPa 43.0 mm 11.7°
4
0%
08:00
14°
1013.4 hPa 43.1 mm 11.3°
3
0%
14:00
19°
1013.6 hPa 45.2 mm 12.9°
5
1%
20:00
19°
1014.1 hPa 49.7 mm 11.1°
4
1%
 06:02     21:17    Daglengte: 15:15 Maandag 02 Aug
02:00
14°
1016.3 hPa 52.3 mm 12.4°
3
1%
08:00
13°
1018.8 hPa 53.1 mm 10.1°
3
0%
14:00
20°
1019.9 hPa 53.8 mm 7.0°
4
1%
20:00
18°
1020.6 hPa 53.9 mm 8.1°
3
1%
 06:03     21:16    Daglengte: 15:13 Dinsdag 03 Aug
02:00
13°
1022.0 hPa 53.9 mm 8.0°
2
0%
14:00
21°
1020.2 hPa 80.9 mm 5.4°
2
0%
20:00
18°
1018.9 hPa 53.9 mm 8.4°
4
1%
 06:05     21:14    Daglengte: 15:09 Woensdag 04 Aug
02:00
14°
1011.8 hPa 0.2 mm 11.0°
2
54%
08:00
14°
1011.9 hPa 0.4 mm 11.1°
3
49%
14:00
20°
1011.6 hPa 1.1 mm 11.8°
4
66%
20:00
19°
1011.8 hPa 2.1 mm 12.7°
3
62%
 06:06     21:12    Daglengte: 15:06 Donderdag 05 Aug
02:00
15°
1013.1 hPa 0.7 mm 11.5°
2
59%
08:00
15°
1013.0 hPa 0.5 mm 11.6°
2
64%
14:00
20°
1013.0 hPa 1.5 mm 12.4°
3
71%
20:00
19°
1013.2 hPa 1.1 mm 12.8°
2
67%
 06:08     21:10    Daglengte: 15:02 Vrijdag 06 Aug
02:00
15°
1014.1 hPa 0.4 mm 11.6°
1
66%
08:00
15°
1014.0 hPa 0.7 mm 12.0°
2
69%
14:00
21°
1013.5 hPa 0.6 mm 12.3°
3
67%
20:00
19°
1013.5 hPa 1.2 mm 13.2°
2
69%
 06:09     21:09    Daglengte: 15:00 Zaterdag 07 Aug
02:00
15°
1014.5 hPa 0.4 mm 12.0°
2
70%
08:00
15°
1014.5 hPa 0.5 mm 11.7°
2
69%
14:00
21°
1013.8 hPa 0.9 mm 12.4°
3
73%
20:00
19°
1013.6 hPa 1.6 mm 13.1°
2
71%
 06:11     21:07    Daglengte: 14:56 Zondag 08 Aug
02:00
16°
1014.4 hPa 0.7 mm 12.1°
2
62%
08:00
16°
1014.4 hPa 0.3 mm 12.5°
3
63%
14:00
21°
1014.1 hPa 1.3 mm 13.6°
4
69%
20:00
20°
1013.9 hPa 1.6 mm 14.5°
3
61%
 06:12     21:05    Daglengte: 14:53 Maandag 09 Aug
02:00
16°
1014.8 hPa 0.7 mm 13.3°
2
57%
08:00
16°
1015.0 hPa 0.6 mm 13.0°
2
62%
  CAPE Lifted Index Hail Supercell Tornado SRH 3km CL BTM PRES CL TOP PRES Swiss DWD icon SMHI TS
 05:50     21:30    Daglengte: 15:40 Vandaag
05:00 0 J/kg 1.5 K 0 % 0 % 0 % 0 m²/s² 0 0 4.41 80
06:00 0 J/kg 1.6 K 0 % 0 % 0 % 0 m²/s² 0 0 4.27 2
07:00 0 J/kg 1.5 K 0 % 0 % 0 % 0 m²/s² 0 0 3.87 1
08:00 0 J/kg 2.2 K 0 % 0 % 0 % 0 m²/s² 0 0 4.21 0
09:00 0 J/kg 2.0 K 0 % 0 % 0 % 0 m²/s² 0 0 3.83 0
10:00 3 J/kg 0.5 K 0 % 0 % 0 % 0 m²/s² 0 0 2.21 1
11:00 251 J/kg -1.0 K 0 % 0 % 0 % 0 m²/s² 0 0 0.47 1
12:00 434 J/kg -1.7 K 0 % 0 % 0 % 0 m²/s² 0 0 -0.44 3
13:00 435 J/kg -1.8 K 0 % 0 % 0 % 0 m²/s² 0 0 -0.96 2
14:00 560 J/kg -2.1 K 0 % 0 % 0 % 0 m²/s² 0 0 -1.71 2
15:00 448 J/kg -1.9 K 0 % 0 % 0 % 0 m²/s² 0 0 -1.42 2
16:00 360 J/kg -1.8 K 0 % 0 % 0 % 0 m²/s² 0 0 -0.81 2
17:00 435 J/kg -1.9 K 0 % 0 % 0 % 0 m²/s² 0 0 -0.61 2
18:00 559 J/kg -2.5 K 0 % 0 % 0 % 0 m²/s² 0 0 -1.09 3
19:00 542 J/kg -2.3 K 0 % 0 % 0 % 0 m²/s² 0 0 -0.89 3
20:00 582 J/kg -2.2 K 0 % 0 % 0 % 0 m²/s² 0 0 -0.94 3
21:00 800 J/kg -3.2 K 0 % 0 % 0 % 0 m²/s² 0 0 -1.91 3
22:00 808 J/kg -3.2 K 0 % 0 % 0 % 0 m²/s² 0 0 -1.25 3
23:00 879 J/kg -4.2 K 0 % 0 % 0 % 0 m²/s² 0 0 -2.37 3
 05:52     21:28    Daglengte: 15:36 Morgen
00:00 862 J/kg -4.0 K 0 % 0 % 0 % 0 m²/s² 0 0 -2.92 3
01:00 665 J/kg -3.3 K 0 % 0 % 0 % 0 m²/s² 0 0 -1.29 3
02:00 275 J/kg -2.3 K 0 % 0 % 0 % 0 m²/s² 0 0 -0.77 3
03:00 221 J/kg -1.5 K 0 % 0 % 0 % 0 m²/s² 0 0 -0.21 3
04:00 229 J/kg -2.9 K 0 % 0 % 0 % 0 m²/s² 0 0 -1.76 3
05:00 278 J/kg -3.0 K 0 % 0 % 0 % 0 m²/s² 0 0 -1.71 3
06:00 277 J/kg -2.9 K 0 % 0 % 0 % 0 m²/s² 0 0 -1.85 3
07:00 333 J/kg -2.4 K 0 % 0 % 0 % 0 m²/s² 0 0 -1.41 3
08:00 428 J/kg -1.9 K 0 % 0 % 0 % 0 m²/s² 0 0 -1.06 3
09:00 552 J/kg -2.0 K 0 % 0 % 0 % 0 m²/s² 0 0 -1.31 3
10:00 526 J/kg -1.8 K 0 % 0 % 0 % 0 m²/s² 0 0 -0.96 3
11:00 485 J/kg -1.6 K 0 % 0 % 0 % 0 m²/s² 0 0 -0.52 3
12:00 457 J/kg -1.4 K 0 % 0 % 0 % 0 m²/s² 0 0 -0.41 3
13:00 161 J/kg -0.3 K 0 % 0 % 0 % 0 m²/s² 0 0 0.3 3
14:00 155 J/kg -0.3 K 0 % 0 % 0 % 0 m²/s² 0 0 0.45 2
15:00 156 J/kg -0.5 K 0 % 0 % 0 % 0 m²/s² 0 0 0.49 3
16:00 400 J/kg -1.5 K 0 % 0 % 0 % 0 m²/s² 0 0 -0.15 3
17:00 474 J/kg -1.7 K 0 % 0 % 0 % 0 m²/s² 0 0 -0.11 80
18:00 610 J/kg -2.5 K 0 % 0 % 0 % 0 m²/s² 0 0 -1.3 80
19:00 682 J/kg -2.9 K 0 % 0 % 0 % 0 m²/s² 0 0 -1.97 2
20:00 526 J/kg -2.2 K 0 % 0 % 0 % 0 m²/s² 0 0 0.5 2
21:00 552 J/kg -2.4 K 0 % 0 % 0 % 0 m²/s² 0 0 0.54 80
22:00 556 J/kg -2.5 K 0 % 0 % 0 % 0 m²/s² 0 0 0.47 2
23:00 656 J/kg -2.9 K 0 % 0 % 0 % 0 m²/s² 0 0 -0.41 3
 05:53     21:27    Daglengte: 15:34 Dinsdag 27 Jul
00:00 658 J/kg -3.0 K 0 % 0 % 0 % 0 m²/s² 0 0 0.03 3
01:00 517 J/kg -3.0 K 0 % 0 % 0 % 0 m²/s² 0 0 -0.15 3
02:00 335 J/kg -2.9 K 0 % 0 % 0 % 0 m²/s² 0 0 -0.89 3
03:00 193 J/kg -2.5 K 0 % 0 % 0 % 0 m²/s² 0 0 0.98 2
04:00 111 J/kg -2.0 K 0 % 0 % 0 % 0 m²/s² 0 0 1.75 2
05:00 52 J/kg -1.9 K 0 % 0 % 0 % 0 m²/s² 0 0 2.27 2
06:00 35 J/kg -2.7 K 0 % 0 % 0 % 0 m²/s² 0 0 1.68 3
07:00 0 J/kg -2.1 K 0 % 0 % 0 % 0 m²/s² 0 0 3.15 3
08:00 78 J/kg -1.3 K 0 % 0 % 0 % 0 m²/s² 0 0 4.07 3
09:00 287 J/kg -2.1 K 0 % 0 % 0 % 0 m²/s² 0 0 2.73 3
10:00 431 J/kg -3.0 K 0 % 0 % 0 % 0 m²/s² 0 0 1.14 3
11:00 529 J/kg -3.0 K 0 % 0 % 0 % 0 m²/s² 0 0 -0.06 3
12:00 515 J/kg -2.5 K 0 % 0 % 0 % 0 m²/s² 0 0 -0.58 1
13:00 555 J/kg -2.7 K 0 % 0 % 0 % 0 m²/s² 0 0 -1.92 3
14:00 513 J/kg -2.5 K 0 % 0 % 0 % 0 m²/s² 0 0 -1.81 3
15:00 89 J/kg -0.5 K 0 % 0 % 0 % 0 m²/s² 0 0 -0.02 3
16:00 33 J/kg 1.1 K 0 % 0 % 0 % 0 m²/s² 0 0 2.27 3
17:00 15 J/kg 0.3 K 0 % 0 % 0 % 0 m²/s² 0 0 1.8 80
18:00 11 J/kg 0.7 K 0 % 0 % 0 % 0 m²/s² 0 0 2.38 61
19:00 82 J/kg -0.2 K 0 % 0 % 0 % 0 m²/s² 0 0 1.36 61
20:00 366 J/kg -2.0 K 0 % 0 % 0 % 0 m²/s² 0 0 -2 3
21:00 397 J/kg -2.0 K 0 % 0 % 0 % 0 m²/s² 0 0 -0.86 2
22:00 244 J/kg -1.4 K 0 % 0 % 0 % 0 m²/s² 0 0 -0.56 3
23:00 45 J/kg 0.2 K 0 % 0 % 0 % 0 m²/s² 0 0 0.62 3
 05:54     21:25    Daglengte: 15:31 Woensdag 28 Jul
00:00 22 J/kg 0.2 K 0 % 0 % 0 % 0 m²/s² 0 0 0.89 3
01:00 68 J/kg 0.0 K 0 % 0 % 0 % 0 m²/s² 0 0 1.08 2
02:00 98 J/kg -0.6 K 0 % 0 % 0 % 0 m²/s² 0 0 0.09 2
Temp Baro Wind Neerslag
  EWN Forecast EWN WRFDA DWD ICON FMI HIRLAM MET Norway GFS
 05:50     21:30    Daglengte: 15:40 Vandaag
05:00 17.1° 1008.4 hPa 1.7 m/s 0.0 mm 16.0° 1006.5 hPa 2.4 m/s 4.1 mm 17.3° 1008.9 hPa 1.1 m/s -1.1 mm 16.1° 1008.6 hPa 1.6 m/s 0.0 mm 16.3° 1008.2 hPa 2.1 m/s
08:00 17.9° 1008.3 hPa 2.5 m/s 0.0 mm 16.9° 1007.4 hPa 1.5 m/s 12.4 mm 18.4° 1008.8 hPa 1.9 m/s 0.1 mm 17.3° 1008.4 hPa 2.6 m/s 0.0 mm 17.6° 1008.8 hPa 2.1 m/s
11:00 22.3° 1008.9 hPa 2.8 m/s 0.0 mm 22.0° 1007.6 hPa 2.4 m/s 12.4 mm 22.5° 1009.4 hPa 2.3 m/s 0.0 mm 22.7° 1009.0 hPa 3.0 m/s 0.0 mm 22.5° 1009.1 hPa 2.7 m/s
14:00 24.3° 1008.2 hPa 3.5 m/s 0.0 mm 21.9° 1008.0 hPa 6.0 m/s 13.2 mm 24.4° 1008.6 hPa 3.2 m/s 0.1 mm 25.9° 1007.8 hPa 3.4 m/s 0.0 mm 25.5° 1008.6 hPa 3.1 m/s
17:00 25.3° 1007.9 hPa 2.2 m/s 0.0 mm 25.7° 1006.7 hPa 3.0 m/s 17.4 mm 25.3° 1008.4 hPa 2.3 m/s 0.0 mm 26.4° 1007.1 hPa 2.0 m/s 0.0 mm 25.0° 1008.1 hPa 3.2 m/s
20:00 23.1° 1008.2 hPa 1.6 m/s 0.0 mm 24.8° 1006.6 hPa 3.5 m/s 17.6 mm 22.5° 1008.8 hPa 1.8 m/s 0.1 mm 24.0° 1007.6 hPa 1.5 m/s 0.0 mm 22.8° 1008.6 hPa 3.3 m/s
23:00 20.4° 1009.0 hPa 0.9 m/s 0.0 mm 22.3° 1007.6 hPa 0.9 m/s 18.5 mm 20.5° 1009.7 hPa 0.8 m/s 0.3 mm 20.3° 1009.1 hPa 1.5 m/s 0.0 mm 19.7° 1009.8 hPa 1.9 m/s
 05:52     21:28    Daglengte: 15:36 Morgen
02:00 18.4° 1009.3 hPa 2.1 m/s 0.0 mm 19.7° 1007.1 hPa 3.2 m/s 19.9 mm 19.3° 1009.6 hPa 1.8 m/s 0.0 mm 17.8° 1009.2 hPa 1.8 m/s 0.0 mm 17.9° 1009.7 hPa 2.6 m/s
05:00 17.6° 1009.5 hPa 2.3 m/s 0.0 mm 18.7° 1007.2 hPa 2.6 m/s 20.0 mm 17.7° 1010.0 hPa 1.7 m/s 0.0 mm 16.6° 1009.7 hPa 2.3 m/s 0.0 mm 17.1° 1009.8 hPa 3.3 m/s
08:00 18.1° 1010.0 hPa 3.0 m/s 0.0 mm 19.4° 1007.6 hPa 2.7 m/s 21.8 mm 19.0° 1010.6 hPa 1.8 m/s 0.0 mm 17.3° 1010.1 hPa 3.2 m/s 0.0 mm 18.3° 1010.3 hPa 4.1 m/s
11:00 21.1° 1010.6 hPa 3.6 m/s 0.0 mm 20.8° 1008.8 hPa 4.6 m/s 24.8 mm 21.2° 1010.9 hPa 3.0 m/s 0.1 mm 22.5° 1010.6 hPa 3.7 m/s 0.0 mm 19.8° 1011.4 hPa 5.0 m/s
14:00 23.1° 1010.1 hPa 3.4 m/s 1.9 mm 22.8° 1009.3 hPa 5.6 m/s 26.0 mm 23.1° 1010.2 hPa 3.5 m/s 0.2 mm 24.3° 1010.0 hPa 3.4 m/s 0.0 mm 21.7° 1011.3 hPa 4.6 m/s
17:00 22.0° 1009.9 hPa 3.4 m/s 4.7 mm 24.0° 1008.9 hPa 4.4 m/s 26.0 mm 21.2° 1010.1 hPa 2.9 m/s 1.7 mm 24.8° 1009.4 hPa 3.3 m/s 0.0 mm 22.0° 1011.5 hPa 4.4 m/s
20:00 20.7° 1010.2 hPa 3.6 m/s 2.2 mm 22.8° 1009.4 hPa 4.8 m/s 27.0 mm 20.3° 1010.3 hPa 3.5 m/s 0.6 mm 22.8° 1010.1 hPa 3.5 m/s 0.0 mm 20.2° 1011.8 hPa 3.0 m/s
23:00 18.5° 1011.4 hPa 3.0 m/s 2.1 mm 21.1° 1010.0 hPa 3.1 m/s 27.1 mm 18.2° 1011.5 hPa 3.0 m/s 0.5 mm 17.4° 1012.8 hPa 2.4 m/s
 05:53     21:27    Daglengte: 15:34 Dinsdag 27 Jul
02:00 17.4° 1011.8 hPa 2.5 m/s 6.3 mm 19.8° 1010.0 hPa 3.8 m/s 27.5 mm 17.1° 1012.0 hPa 2.4 m/s 0.4 mm 16.4° 1012.8 hPa 1.8 m/s
05:00 16.6° 1011.9 hPa 2.8 m/s 0.0 mm 18.1° 1009.4 hPa 3.2 m/s 28.5 mm 16.4° 1012.1 hPa 2.1 m/s 0.0 mm 15.7° 1012.8 hPa 2.1 m/s
08:00 17.3° 1012.1 hPa 2.5 m/s 0.0 mm 18.7° 1009.8 hPa 2.9 m/s 28.5 mm 17.1° 1012.4 hPa 2.6 m/s 0.0 mm 17.2° 1013.0 hPa 2.6 m/s
11:00 21.4° 1011.8 hPa 3.6 m/s 0.0 mm 22.5° 1010.5 hPa 4.4 m/s 28.5 mm 21.1° 1012.1 hPa 3.5 m/s 0.0 mm 21.9° 1012.2 hPa 2.6 m/s
14:00 23.9° 1011.1 hPa 4.8 m/s 0.0 mm 23.9° 1011.1 hPa 7.7 m/s 28.6 mm 24.0° 1011.1 hPa 4.1 m/s 0.0 mm 25.6° 1011.6 hPa 3.7 m/s
17:00 21.3° 1011.6 hPa 3.5 m/s 3.5 mm 23.9° 1010.7 hPa 3.8 m/s 29.5 mm 20.6° 1011.8 hPa 3.5 m/s 0.6 mm 23.1° 1011.1 hPa 4.8 m/s
20:00 20.6° 1010.8 hPa 3.6 m/s 3.4 mm 20.5° 1010.2 hPa 8.3 m/s 30.2 mm 20.6° 1010.9 hPa 2.4 m/s 0.3 mm 18.3° 1011.8 hPa 3.1 m/s
23:00 18.6° 1011.5 hPa 2.4 m/s 0.0 mm 19.0° 1010.5 hPa 4.1 m/s 41.6 mm 18.5° 1011.7 hPa 2.0 m/s 0.1 mm 18.1° 1012.3 hPa 2.3 m/s
 05:54     21:25    Daglengte: 15:31 Woensdag 28 Jul
02:00 17.7° 1011.4 hPa 2.6 m/s 0.0 mm 18.1° 1009.9 hPa 2.9 m/s 41.6 mm 17.6° 1011.8 hPa 2.5 m/s 0.0 mm 16.3° 1011.9 hPa 2.3 m/s
05:00 15.1° 1010.9 hPa 2.9 m/s 8.0 mm 15.1° 1010.9 hPa 2.9 m/s 8.0 mm
08:00 17.1° 1011.7 hPa 3.5 m/s 8.1 mm 17.1° 1011.7 hPa 3.5 m/s 8.1 mm
11:00 17.4° 1012.9 hPa 4.8 m/s 8.6 mm 17.4° 1012.9 hPa 4.8 m/s 8.6 mm
14:00 19.6° 1013.4 hPa 4.3 m/s 8.8 mm 19.6° 1013.4 hPa 4.3 m/s 8.8 mm
17:00 20.4° 1013.5 hPa 5.4 m/s 9.8 mm 20.4° 1013.5 hPa 5.4 m/s 9.8 mm
20:00 19.6° 1013.6 hPa 3.4 m/s 10.0 mm 19.6° 1013.6 hPa 3.4 m/s 10.0 mm
23:00 16.7° 1014.1 hPa 2.6 m/s 10.1 mm 16.7° 1014.1 hPa 2.6 m/s 10.1 mm
 05:56     21:24    Daglengte: 15:28 Donderdag 29 Jul
02:00 15.3° 1013.5 hPa 2.2 m/s 10.1 mm 15.3° 1013.5 hPa 2.2 m/s 10.1 mm
05:00 14.4° 1012.7 hPa 2.9 m/s 10.1 mm 14.4° 1012.7 hPa 2.9 m/s 10.1 mm
08:00 15.6° 1012.0 hPa 4.1 m/s 10.1 mm 15.6° 1012.0 hPa 4.1 m/s 10.1 mm
11:00 21.6° 1011.1 hPa 4.9 m/s 10.2 mm 21.6° 1011.1 hPa 4.9 m/s 10.2 mm
14:00 24.7° 1009.6 hPa 6.7 m/s 10.6 mm 24.7° 1009.6 hPa 6.7 m/s 10.6 mm
17:00 24.4° 1009.0 hPa 6.3 m/s 10.7 mm 24.4° 1009.0 hPa 6.3 m/s 10.7 mm
20:00 20.9° 1009.3 hPa 5.0 m/s 10.9 mm 20.9° 1009.3 hPa 5.0 m/s 10.9 mm
23:00 18.0° 1010.1 hPa 4.5 m/s 11.1 mm 18.0° 1010.1 hPa 4.5 m/s 11.1 mm
 05:57     21:22    Daglengte: 15:25 Vrijdag 30 Jul
02:00 16.4° 1010.9 hPa 4.0 m/s 11.1 mm 16.4° 1010.9 hPa 4.0 m/s 11.1 mm
05:00 14.1° 1011.4 hPa 3.4 m/s 11.1 mm 14.1° 1011.4 hPa 3.4 m/s 11.1 mm
08:00 14.9° 1011.9 hPa 4.2 m/s 11.1 mm 14.9° 1011.9 hPa 4.2 m/s 11.1 mm
11:00 19.1° 1012.0 hPa 5.0 m/s 11.1 mm 19.1° 1012.0 hPa 5.0 m/s 11.1 mm
14:00 21.8° 1011.3 hPa 5.3 m/s 11.1 mm 21.8° 1011.3 hPa 5.3 m/s 11.1 mm
17:00 21.0° 1010.7 hPa 4.7 m/s 11.1 mm 21.0° 1010.7 hPa 4.7 m/s 11.1 mm
20:00 19.8° 1010.3 hPa 3.0 m/s 11.1 mm 19.8° 1010.3 hPa 3.0 m/s 11.1 mm
23:00 18.0° 1010.0 hPa 3.1 m/s 11.1 mm 18.0° 1010.0 hPa 3.1 m/s 11.1 mm
 05:59     21:21    Daglengte: 15:22 Zaterdag 31 Jul
02:00 16.8° 1009.4 hPa 2.3 m/s 11.1 mm 16.8° 1009.4 hPa 2.3 m/s 11.1 mm
05:00 15.1° 1007.0 hPa 2.2 m/s 14.6 mm 15.0° 1007.0 hPa 2.2 m/s 14.6 mm
08:00 15.3° 1006.4 hPa 2.4 m/s 17.7 mm 15.3° 1006.4 hPa 2.4 m/s 17.7 mm
11:00 15.6° 1007.0 hPa 4.6 m/s 18.8 mm 15.6° 1007.0 hPa 4.6 m/s 18.8 mm
14:00 19.4° 1008.7 hPa 5.8 m/s 19.4 mm 19.4° 1008.7 hPa 5.8 m/s 19.4 mm
17:00 19.5° 1009.4 hPa 6.5 m/s 20.7 mm 19.5° 1009.4 hPa 6.5 m/s 20.7 mm
20:00 18.2° 1009.6 hPa 5.2 m/s 21.1 mm 18.2° 1009.6 hPa 5.2 m/s 21.1 mm
23:00 15.5° 1010.9 hPa 4.2 m/s 21.5 mm 15.5° 1010.9 hPa 4.2 m/s 21.5 mm
 06:00     21:19    Daglengte: 15:19 Zondag 01 Aug
02:00 14.2° 1011.8 hPa 4.0 m/s 21.5 mm 14.2° 1011.8 hPa 4.0 m/s 21.5 mm
08:00 14.3° 1013.4 hPa 3.3 m/s 21.5 mm 14.3° 1013.4 hPa 3.3 m/s 21.5 mm
14:00 19.3° 1013.6 hPa 5.4 m/s 23.5 mm 19.3° 1013.6 hPa 5.4 m/s 23.5 mm
20:00 18.7° 1014.1 hPa 4.0 m/s 24.9 mm 18.7° 1014.1 hPa 4.0 m/s 24.9 mm
 06:02     21:17    Daglengte: 15:15 Maandag 02 Aug
02:00 14.2° 1016.3 hPa 3.1 m/s 26.4 mm 14.2° 1016.3 hPa 3.1 m/s 26.4 mm
08:00 12.7° 1018.8 hPa 3.5 m/s 26.6 mm 12.7° 1018.8 hPa 3.5 m/s 26.6 mm
14:00 19.6° 1019.9 hPa 4.1 m/s 27.0 mm 19.6° 1019.9 hPa 4.1 m/s 27.0 mm
20:00 17.8° 1020.6 hPa 3.1 m/s 27.0 mm 17.8° 1020.6 hPa 3.1 m/s 27.0 mm
 06:03     21:16    Daglengte: 15:13 Dinsdag 03 Aug
02:00 13.1° 1022.0 hPa 1.5 m/s 27.0 mm 13.1° 1022.0 hPa 1.5 m/s 27.0 mm
14:00 20.7° 1020.2 hPa 2.1 m/s 27.0 mm 20.7° 1020.2 hPa 2.1 m/s 27.0 mm
20:00 18.4° 1018.9 hPa 4.2 m/s 27.0 mm 18.4° 1018.9 hPa 4.2 m/s 27.0 mm
 06:05     21:14    Daglengte: 15:09 Woensdag 04 Aug
02:00 14.2° 1011.8 hPa 2.3 m/s 0.2 mm
08:00 14.3° 1011.9 hPa 2.9 m/s 0.4 mm
14:00 20.5° 1011.6 hPa 3.9 m/s 1.1 mm
20:00 18.9° 1011.8 hPa 2.6 m/s 2.1 mm
 06:06     21:12    Daglengte: 15:06 Donderdag 05 Aug
02:00 14.9° 1013.1 hPa 2.1 m/s 0.7 mm
08:00 14.9° 1013.0 hPa 2.4 m/s 0.5 mm
14:00 20.3° 1013.0 hPa 3.5 m/s 1.5 mm
20:00 19.2° 1013.2 hPa 2.2 m/s 1.1 mm
 06:08     21:10    Daglengte: 15:02 Vrijdag 06 Aug
02:00 15.2° 1014.1 hPa 1.4 m/s 0.4 mm
08:00 15.3° 1014.0 hPa 2.0 m/s 0.7 mm
14:00 21.1° 1013.5 hPa 3.4 m/s 0.6 mm
20:00 19.2° 1013.5 hPa 2.5 m/s 1.2 mm
 06:09     21:09    Daglengte: 15:00 Zaterdag 07 Aug
02:00 15.4° 1014.5 hPa 1.6 m/s 0.4 mm
08:00 15.1° 1014.5 hPa 2.1 m/s 0.5 mm
14:00 20.9° 1013.8 hPa 3.1 m/s 0.9 mm
20:00 19.1° 1013.6 hPa 2.1 m/s 1.6 mm
 06:11     21:07    Daglengte: 14:56 Zondag 08 Aug
02:00 15.7° 1014.4 hPa 1.9 m/s 0.7 mm
08:00 15.7° 1014.4 hPa 2.6 m/s 0.3 mm
14:00 21.3° 1014.1 hPa 3.5 m/s 1.3 mm
20:00 20.3° 1013.9 hPa 2.7 m/s 1.6 mm
 06:12     21:05    Daglengte: 14:53 Maandag 09 Aug
02:00 16.2° 1014.8 hPa 1.8 m/s 0.7 mm
08:00 16.1° 1015.0 hPa 2.2 m/s 0.6 mm
FMI Hirlam - 7.5 km EWN WRFDA - 12 km DWD ICON - 7 km GFS - 25 km Basiskaart






























































Updatetijd (Europe/Amsterdam) Resolutie Lengte Stap
FMI Hirlam 02:00, 08:00, 14:00, 20:00 7.5 km 49h 1h
EWN WRFDA 22:15, 04:15, 10:15, 16:15 12 km 73h 1h
DWD ICON 23:45, 05:45, 11:45, 17:45 7 km 75h 1h
GFS 02:15, 08:15, 14:15, 20:15 25 km 237h 3h
30+ mm
25-30 mm
20-25 mm
15-20 mm
10-15 mm
6-10 mm
4-6 mm
2-4 mm
1-2 mm
0.5-1 mm
0.2-0.5 mm
0.1-0.2 mm
30+ mm
25-30 mm
20-25 mm
15-20 mm
10-15 mm
6-10 mm
4-6 mm
2-4 mm
1-2 mm
0.5-1 mm
0.2-0.5 mm
0.1-0.2 mm
Sneeuwval
Natte sneeuw
Hagel
Vorst
30+ mm
25-30 mm
20-25 mm
15-20 mm
10-15 mm
6-10 mm
4-6 mm
2-4 mm
1-2 mm
0.5-1 mm
0.2-0.5 mm
0.1-0.2 mm
Sneeuwval
Natte sneeuw
Hagel
Vorst
Onweer
50 mm
40 mm
30 mm
26 mm
22 mm
18 mm
14 mm
10 mm
9 mm
8 mm
7 mm
6 mm
5 mm
4.5 mm
4 mm
3.5 mm
3 mm
2.5 mm
2 mm
1.5 mm
1 mm
0.8 mm
0.6 mm
0.4 mm
0.2 mm
0.05 mm
35°
30°
25°
20°
15°
10°
-5°
-10°
-15°
-20°
-25°
-30°
-35°
33> m/s
29 m/s
25 m/s
21 m/s
17 m/s
14 m/s
11 m/s
8 m/s
5 m/s
3 m/s
0 m/s
2600 J/kg
2400 J/kg
2200 J/kg
2000 J/kg
1800 J/kg
1600 J/kg
1400 J/kg
1200 J/kg
1000 J/kg
800 J/kg
600 J/kg
400 J/kg
200 J/kg
70 dBZ
65 dBZ
60 dBZ
55 dBZ
50 dBZ
45 dBZ
40 dBZ
35 dBZ
30 dBZ
25 dBZ
20 dBZ
15 dBZ
10 dBZ
5 dBZ
-1 K
-2 K
-3 K
-4 K
-5 K
-6 K
-7 K
-8 K
-9 K
950 m²/s²
900 m²/s²
850 m²/s²
800 m²/s²
750 m²/s²
700 m²/s²
650 m²/s²
600 m²/s²
550 m²/s²
500 m²/s²
450 m²/s²
400 m²/s²
350 m²/s²
300 m²/s²
250 m²/s²
200 m²/s²
150 m²/s²
100 m²/s²
46 m/s
44 m/s
42 m/s
40 m/s
38 m/s
36 m/s
34 m/s
32 m/s
30 m/s
28 m/s
26 m/s
24 m/s
22 m/s
20 m/s
16 m/s
12 m/s
8 m/s
4 m/s
30 m/s
28 m/s
26 m/s
24 m/s
22 m/s
20 m/s
18 m/s
16 m/s
14 m/s
12 m/s
10 m/s
8 m/s
6 m/s
4 m/s
2 m/s
3.0
2.8
2.6
2.4
2.2
2.0
1.8
1.6
1.4
1.2
1.0
0.8
0.6
0.4
0.2
15
14
13
12
11
10
9
8
7
6
5
4
3
2
1
90%
80%
70%
60%
50%
40%
30%
20%
10%
42
40
38
36
34
32
30
28
26
24
22
20
18
16
14
12
90+ cm
80-90 cm
70-80 cm
60-70 cm
50-60 cm
40-50 cm
30-40 cm
20-30 cm
10-20 cm
1-10 cm
Sneeuwval
Natte sneeuw
Regen
>120 mm
115 mm
110 mm
105 mm
100 mm
95 mm
90 mm
85 mm
80 mm
75 mm
70 mm
65 mm
60 mm
55 mm
50 mm
45 mm
45 mm
40 mm
35 mm
30 mm
25 mm
20 mm
15 mm
10 mm
5 mm
0.1 mm
960 hPa
880 hPa
800 hPa
720 hPa
640 hPa
560 hPa
584 gpdm
568 gpdm
552 gpdm
536 gpdm
520 gpdm
504 gpdm
488 gpdm
Extreem zwaar Noodweer Kans op onweer
15% 15% 5% 50% 15%

Dag




Kaart






35°
30°
25°
20°
15°
10°
-5°